McGuire AFB, NJ

12:15 PM EDT on September 24, 2017 (GMT -0400)
McGuire Air Force Base

Weather History for KWRI - September, 2013

Change the Weather History Date:

Wednesday, September 18, 2013

  Actual Average Record
Temperature  
Mean Temperature 56 °F -  
Max Temperature 72 °F 75 °F 86 °F (2016)
Min Temperature 41 °F 54 °F 41 °F (2013)
Degree Days  
Heating Degree Days 9    
Growing Degree Days 6 (Base 50)    
Moisture  
Dew Point 45 °F    
Average Humidity 63    
Maximum Humidity 94    
Minimum Humidity 40    
Precipitation  
Precipitation 0.00 in - - ()
Sea Level Pressure  
Sea Level Pressure 30.28 in    
Wind  
Wind Speed 3 mph (SW)    
Max Wind Speed 7 mph    
Max Gust Speed -    
Visibility 10 miles    
Events Rain    
Averages and records for this station are not official NWS values.
T = Trace of Precipitation, MM = Missing Value Source: NWS Daily Summary

Daily Weather History Graph

Daily Weather History Graph

Search for Another Location

Airport or City:

Trip Planner

Search our weather history database for the weather conditions in past years. The results will help you decide how hot, cold, wet, or windy it might be!

Date:

Astronomy

Sep. 18, 2013 Rise Set
Actual Time 6:42 AM EDT 7:01 PM EDT
Civil Twilight 6:15 AM EDT 7:28 PM EDT
Nautical Twilight 5:43 AM EDT 8:00 PM EDT
Astronomical Twilight 5:10 AM EDT 8:33 PM EDT
Moon 6:23 PM EDT (9/18) 5:42 AM EDT (9/18)
Length of Visible Light 13h 13m
Length of Day
12h 19m
Waxing Gibbous, 99% of the Moon is Illuminated
Sep 18
Waxing Gibbous
Sep 19
Full
Sep 26
Last Quarter
Oct 4
New
Oct 11
First Quarter

Hourly Weather History & Observations

Time (EDT) Temp. Windchill Dew Point Humidity Pressure Visibility Wind Dir Wind Speed Gust Speed Precip Events Conditions
12:58 AM 44.4 °F - 41.2 °F 88% 30.35 in 10.0 mi NNW 2.3 mph - N/A   Clear
1:58 AM 42.8 °F - 39.6 °F 88% 30.35 in 10.0 mi Calm Calm - N/A   Clear
2:58 AM 43.0 °F - 40.8 °F 92% 30.34 in 10.0 mi Calm Calm - N/A   Clear
3:58 AM 42.6 °F - 40.3 °F 91% 30.34 in 10.0 mi Calm Calm - N/A   Clear
4:58 AM 43.0 °F - 40.1 °F 90% 30.33 in 10.0 mi Calm Calm - N/A   Clear
5:58 AM 41.7 °F 39.8 °F 39.7 °F 93% 30.32 in 10.0 mi North 3.5 mph - N/A   Clear
6:58 AM 41.5 °F 38.6 °F 39.9 °F 94% 30.33 in 10.0 mi NNW 4.6 mph - N/A   Clear
7:58 AM 48.9 °F - 44.8 °F 86% 30.34 in 10.0 mi North 3.5 mph - N/A   Clear
8:58 AM 55.8 °F - 46.6 °F 71% 30.34 in 10.0 mi North 4.6 mph - N/A   Clear
9:58 AM 62.1 °F - 43.5 °F 51% 30.33 in 10.0 mi NW 4.6 mph - N/A   Clear
10:58 AM 64.8 °F - 45.1 °F 49% 30.32 in 10.0 mi Variable 4.6 mph - N/A   Clear
11:54 AM 66.2 °F - 44.6 °F 46% 30.30 in 10.0 mi SE 2.3 mph - N/A Rain Light Rain
11:58 AM 66.0 °F - 44.2 °F 45% 30.30 in 10.0 mi Variable 1.2 mph - 0.00 in Rain Light Rain
12:05 PM 66.2 °F - 44.6 °F 46% 30.29 in 10.0 mi SE 2.3 mph - N/A   Clear
12:06 PM 66.2 °F - 44.6 °F 46% 30.29 in 10.0 mi ESE 2.3 mph - N/A Rain Light Rain
12:16 PM 66.2 °F - 44.6 °F 46% 30.29 in 10.0 mi Variable 1.2 mph - N/A   Clear
12:56 PM 68.0 °F - 44.6 °F 43% 30.28 in 10.0 mi Variable 4.6 mph - N/A   Light Drizzle
12:57 PM 68.0 °F - 44.6 °F 43% 30.28 in 10.0 mi WSW 5.8 mph - N/A   Clear
12:58 PM 68.0 °F - 44.6 °F 43% 30.29 in 10.0 mi WSW 5.8 mph - 0.00 in   Clear
1:58 PM 69.8 °F - 45.7 °F 42% 30.26 in 10.0 mi WNW 3.5 mph - 0.00 in   Clear
2:07 PM 69.8 °F - 46.4 °F 43% 30.24 in 10.0 mi Variable 2.3 mph - N/A Rain Light Rain
2:11 PM 69.8 °F - 46.4 °F 43% 30.24 in 10.0 mi SSW 5.8 mph - N/A   Clear
2:58 PM 70.7 °F - 45.0 °F 40% 30.24 in 10.0 mi Variable 4.6 mph - 0.00 in   Clear
3:58 PM 70.3 °F - 44.6 °F 40% 30.21 in 10.0 mi SSE 5.8 mph - N/A   Clear
4:58 PM 71.2 °F - 46.2 °F 41% 30.21 in 10.0 mi Variable 2.3 mph - N/A   Clear
5:58 PM 69.8 °F - 46.2 °F 43% 30.20 in 10.0 mi SSW 6.9 mph - N/A   Clear
6:58 PM 63.3 °F - 50.9 °F 64% 30.20 in 10.0 mi SSE 6.9 mph - N/A   Clear
7:58 PM 58.8 °F - 50.0 °F 73% 30.20 in 10.0 mi SSE 6.9 mph - N/A   Clear
8:58 PM 55.9 °F - 49.8 °F 80% 30.21 in 10.0 mi South 5.8 mph - N/A   Clear
9:58 PM 53.6 °F - 49.1 °F 85% 30.21 in 10.0 mi SW 3.5 mph - N/A   Clear
10:58 PM 51.8 °F - 48.6 °F 89% 30.21 in 10.0 mi SW 4.6 mph - N/A   Clear
11:58 PM 50.9 °F - 48.0 °F 90% 30.21 in 10.0 mi WSW 4.6 mph - N/A   Clear